Flag for Poland Weather past 2 weeks in Włocławek, Poland

Now
45 °F

Fog.


Feels Like: 43 °F
Forecast: 38 / 48 °F
Wind: 3 mph from Southeast

Location: Plock

Current Time: Mar 1, 2015 at 6:47:29 PM

Latest Report: Mar 1, 2015 at 5:00 PM


Visibility: 4 mi

Pressure: 29.70 "Hg

Humidity: 70%

Dew point: 36 °F

Location of WłocławekLocation

Historic Weather in Włocławek — Graph

°F

Włocławek temperature yesterday

Maximum temperature yesterday: 47 °F (at 1:00 PM)
Minimum temperature yesterday: 37 °F (at 9:00 PM)
Average temperature yesterday: 40 °F

Past Weeks' High & Low Weather Summary

 TemperatureHumidityPressure
High47 °F (Feb 28, 1:00 PM)98% (Feb 23, 2:00 AM)30.67 "Hg (Feb 23, 2:00 AM)
Low22 °F (Feb 17, 7:00 AM)33% (Feb 17, 3:00 PM)29.53 "Hg (Feb 21, 3:00 PM)
Average36 °F80%30.09 "Hg
* Reported Feb 14 5:00 PM — Mar 1 5:00 PM, Włocławek, Weather by CustomWeather, © 2015

Note: Actual official high and low records may vary slightly from our data, if they occured in-between our weather recording intervals... More about our weather records

Advertising

Włocławek weather history for previous 24 hours

 ConditionsComfort  
Time TempWeatherWind HumidityBarometerVisibility
5:00 PM
Sun, Mar 1
45 °FFog.3 mph70%29.70 "Hg4 mi
4:00 PM46 °FFog.5 mph69%29.72 "Hg4 mi
3:00 PM46 °FFog.6 mph66%29.75 "Hg4 mi
2:00 PM46 °FFog.7 mph72%29.77 "Hg4 mi
1:00 PM44 °FFog.6 mph74%29.81 "Hg3 mi
12:00 PM41 °FFog.5 mph75%29.86 "Hg4 mi
11:00 AM39 °FFog.5 mph75%29.90 "Hg5 mi
10:00 AM40 °FFog.6 mph74%29.92 "Hg6 mi
9:00 AM36 °FFog.3 mph84%29.95 "Hg3 mi
8:00 AM33 °FFog.2 mph93%29.97 "Hg2 mi
7:00 AM30 °FFog.2 mph95%29.99 "Hg2 mi
6:00 AM30 °FFog.2 mph96%30.01 "Hg1 mi
5:00 AM30 °FFog.2 mph97%30.02 "Hg1 mi
3:00 AM31 °FFog.1 mph95%30.04 "Hg1 mi
2:00 AM33 °FFog.2 mph95%30.06 "Hg2 mi
1:00 AM33 °FFog.1 mph89%30.07 "Hg3 mi
12:00 AM38 °FFog.2 mph85%30.07 "Hg5 mi
11:00 PM
Sat, Feb 28
38 °FChilly.3 mph83%30.08 "Hg6 mi
10:00 PM37 °FChilly.3 mph85%30.09 "Hg6 mi
9:00 PM37 °FChilly.3 mph83%30.10 "Hg6 mi
8:00 PM39 °FChilly.2 mph79%30.10 "Hg8 mi
7:00 PM39 °FChilly.5 mph79%30.10 "Hg7 mi
6:00 PM38 °FFog.3 mph81%30.09 "Hg4 mi
Weather by CustomWeather, © 2015

See weather overviewHow to use our weather pages